Regional Weather Roundup
Issued by NWS

Home | Current Version | Previous Version | Graphics & Text | Print | Product List | Glossary On
Versions: 1 2 3 4 5 6 7 8 9 10 11 12 13 14 15 16 17 18 19 20 21 22 23 24 25 26 27 28 29 30 31 32 33 34 35 36 37 38 39 40 41 42 43 44 45 46 47 48 49 50
000
ASUS45 KABQ 281010
RWRNM
NEW MEXICO REGIONAL WEATHER ROUNDUP
NATIONAL WEATHER SERVICE ALBUQUERQUE NM
400 AM MDT THU APR 28 2016

NOTE: "FAIR" MEANS FEW OR NO CLOUDS BELOW 12,000 FEET AGL WITH NO
       SIGNIFICANT WEATHER OR OBSTRUCTIONS TO VISION.

      THIS PRODUCT IS RELEASED AS TWO VERSIONS.  ONE VERSION NEAR
      THE TOP OF THE HOUR CONTAINING PRELIMINARY DATA FROM ALBUQUERQUE
      AND OTHER STATIONS.  A FINAL VERSION WITH ADDITIONAL DATA IS
      ISSUED ABOUT 10 MINUTES AFTER THE HOUR.

NMZ501-503-504-510>518-281100-
NORTHWEST PLATEAU/NORTHCENTRAL MOUNTAINS

CITY           SKY/WX    TMP DP  RH WIND       PRES   REMARKS
FARMINGTON     CLOUDY    50  34  54 E6        29.72F
LOS ALAMOS     MOCLDY    47  30  53 CALM      29.86S
SANTA FE       CLOUDY    46  28  49 SE7       29.82S
TAOS           CLOUDY    45  27  49 SW12      29.87R
ANGEL FIRE     CLOUDY    34  28  78 CALM      29.92R

$$
NMZ402-403-502-505>509-281100-
WESTCENTRAL MOUNTAINS/SOUTHWEST MOUNTAINS

CITY           SKY/WX    TMP DP  RH WIND       PRES   REMARKS
GALLUP         CLOUDY    50  20  30 S15G25    29.77S
GRANTS         CLOUDY    50  23  34 S14G23    29.80F
SILVER CITY      N/A     41  16  36 N5        29.83S

$$
NMZ407-409-411-412-281100-
SOUTHERN DESERTS

CITY           SKY/WX    TMP DP  RH WIND       PRES   REMARKS
LORDSBURG      FAIR      48  18  29 SE5       29.77S
DEMING         FAIR      49  17  28 CALM      29.78S
LAS CRUCES     FAIR      53  16  23 CALM      29.79S
HOLLOMAN AFB   FAIR      60  14  16 SE12      29.76R
ALAMOGORDO     FAIR      57  14  18 S13       29.78S
T OR C         FAIR      55  17  22 S6        29.75S

$$
NMZ519>523-281100-
CENTRAL VALLEYS/CENTRAL HIGHLANDS

CITY           SKY/WX    TMP DP  RH WIND       PRES   REMARKS
ALBUQUERQUE    CLOUDY    59  26  28 SE8G33    29.80S
DOUBLE EAGLE   CLOUDY    57  23  26 SW10G31   29.80F
MORIARTY ARPT  FAIR      48  25  40 W10       29.84F
CLINES CORNERS FAIR      46  25  43 W18       29.83F
BELEN          MOCLDY    55  21  27 NE3       29.77S
SOCORRO        FAIR      55  20  25 SE3       29.76R

$$
NMZ524>526-539-540-281100-
SOUTHCENTRAL MOUNTAINS

CITY           SKY/WX    TMP DP  RH WIND       PRES   REMARKS
RUIDOSO          N/A     46  12  25 S9        29.87S

$$
NMZ527>531-281100-
NORTHEAST HIGHLANDS/NORTHEAST PLAINS

CITY           SKY/WX    TMP DP  RH WIND       PRES   REMARKS
LAS VEGAS      FAIR      40  28  62 N7        29.88R
RATON          CLOUDY    43  27  53 N9        29.88R
CLAYTON        CLOUDY    44  31  60 NE13      29.88R

$$
NMZ532>537-281100-
EASTCENTRAL PLAINS

CITY           SKY/WX    TMP DP  RH WIND       PRES   REMARKS
TUCUMCARI      FAIR      49  35  58 NE8       29.78R
CANNON AFB     FAIR      48  35  60 S9        29.79R
CLOVIS AIRPORT FAIR      48  37  66 SE9       29.80R

$$
NMZ028-029-538-281100-
SOUTHEAST PLAINS

CITY           SKY/WX    TMP DP  RH WIND       PRES   REMARKS
ROSWELL        FAIR      54  17  23 SW9       29.72S
ARTESIA        FAIR      48  18  29 SW5       29.75S
CARLSBAD       FAIR      53  17  24 SE3       29.72R
HOBBS          FAIR      54  25  32 S7        29.77F


$$




USA.gov is the U.S. government's official web portal to all federal, state and local government web resources and services.